Tracking 23731 objects as of 27-Sep-2021
HD Live streaming from Space Station
objects crossing your sky now

STARLINK-2011

Track STARLINK-2011 now!
10-day predictions
STARLINK-2011 is classified as:


NORAD ID: 47350
Int'l Code: 2021-005B
Perigee: 553.1 km
Apogee: 555.6 km
Inclination: 53.1 °
Period: 95.6 minutes
Semi major axis: 6925 km
RCS: Unknown
Launch date: January 20, 2021
Source: United States (US)
Launch site: AIR FORCE EASTERN TEST RANGE (AFETR)
aabbcc
Your satellite tracking list
Your tracking list is empty




NASA's NSSDC Master Catalog

Two Line Element Set (TLE):
1 47350U 21005B   21269.38494033  .00000343  00000-0  41947-4 0  9990
2 47350  53.0558 157.9502 0001812  88.1731 271.9465 15.06399405 38070
Source of the keplerian elements: AFSPC